Weather History for Birmingham, United Kingdom

Change the Weather History Date:

Friday, September 6, 2013

  Actual Average Record
Temperature  
Mean Temperature 54 °F -  
Max Temperature 59 °F 63 °F 77 °F (1999)
Min Temperature 48 °F 47 °F 41 °F (2012)
Degree Days  
Heating Degree Days 12    
Growing Degree Days 4 (Base 50)    
Moisture  
Dew Point 51 °F    
Average Humidity 90    
Maximum Humidity 100    
Minimum Humidity 77    
Precipitation  
Precipitation 0.00 in 0.07 in - ()
Sea Level Pressure  
Sea Level Pressure 29.77 in    
Wind  
Wind Speed 7 mph ()    
Max Wind Speed 13 mph    
Max Gust Speed -    
Visibility 5.4 miles    
Events Fog , Rain    
Averages and records for this station are not official NWS values.
T = Trace of Precipitation, MM = Missing Value Source: Averaged Metar Reports

Daily Weather History Graph

Daily Weather History Graph

Search for Another Location

Airport:

Trip Planner

Search our weather history database for the weather conditions in past years. The results will help you decide how hot, cold, wet, or windy it might be!

Date:

Astronomy

Sep. 06, 2013 Rise Set
Actual Time 6:26 AM BST 7:43 PM BST
Civil Twilight 5:51 AM BST 8:18 PM BST
Nautical Twilight 5:08 AM BST 9:00 PM BST
Astronomical Twilight 4:21 AM BST 9:47 PM BST
Moon 7:38 AM BST (9/6) 7:41 PM BST (9/6)
Length of Visible Light 14h 26m
Length of Day
13h 16m
New Moon, 1% of the Moon is Illuminated
Sep 6
New Moon
Sep 12
First Quarter
Sep 19
Full
Sep 27
Last Quarter
Oct 5
New

Hourly Weather History & Observations

Time (BST) Temp. Dew Point Humidity Pressure Visibility Wind Dir Wind Speed Gust Speed Precip Events Conditions
12:20 AM 55.4 °F 50.0 °F 82% 29.83 in - NNW 9.2 mph - N/A   Clear
12:50 AM 55.4 °F 50.0 °F 82% 29.83 in 6.2 mi NNW 9.2 mph - N/A   Scattered Clouds
1:20 AM 55.4 °F 50.0 °F 82% 29.83 in - NNW 9.2 mph - N/A   Clear
1:50 AM 55.4 °F 50.0 °F 82% 29.80 in 6.2 mi NNW 6.9 mph - N/A   Mostly Cloudy
2:20 AM 55.4 °F 50.0 °F 82% 29.80 in 6.2 mi NNW 8.1 mph - N/A   Partly Cloudy
2:50 AM 55.4 °F 50.0 °F 82% 29.80 in 6.2 mi NNW 6.9 mph - N/A Rain Light Rain
3:20 AM 55.4 °F 48.2 °F 77% 29.77 in 6.2 mi NNW 10.4 mph - N/A Rain Light Rain
3:50 AM 55.4 °F 48.2 °F 77% 29.77 in 6.2 mi NW 11.5 mph - N/A   Mostly Cloudy
4:20 AM 55.4 °F 48.2 °F 77% 29.77 in 6.2 mi NW 10.4 mph - N/A   Mostly Cloudy
4:50 AM 55.4 °F 48.2 °F 77% 29.77 in 6.2 mi NNW 10.4 mph - N/A   Mostly Cloudy
5:20 AM 53.6 °F 50.0 °F 88% 29.77 in 6.2 mi NNW 11.5 mph - N/A   Mostly Cloudy
5:50 AM 53.6 °F 50.0 °F 88% 29.77 in 6.2 mi NNW 12.7 mph - N/A   Mostly Cloudy
6:20 AM 53.6 °F 50.0 °F 88% 29.77 in 6.2 mi NNW 9.2 mph - N/A   Mostly Cloudy
6:50 AM 53.6 °F 51.8 °F 94% 29.77 in 5.0 mi NNW 6.9 mph - N/A Rain Light Rain
7:20 AM 53.6 °F 51.8 °F 94% 29.77 in 6.2 mi West 6.9 mph - N/A Rain Light Rain
7:50 AM 53.6 °F 51.8 °F 94% 29.77 in 3.1 mi NW 8.1 mph - N/A Rain Rain
8:20 AM 53.6 °F 51.8 °F 94% 29.77 in 6.2 mi NNW 8.1 mph - N/A Rain Light Rain
8:50 AM 53.6 °F 51.8 °F 94% 29.77 in 3.7 mi NW 5.8 mph - N/A Rain Rain
9:20 AM 53.6 °F 53.6 °F 100% 29.77 in 4.3 mi NW 4.6 mph - N/A Rain Light Rain
9:50 AM 53.6 °F 53.6 °F 100% 29.77 in 5.0 mi NW 6.9 mph - N/A Rain Light Rain
10:20 AM 53.6 °F 53.6 °F 100% 29.77 in 1.9 mi NW 6.9 mph - N/A Rain Rain
10:50 AM 53.6 °F 53.6 °F 100% 29.77 in - NW 6.9 mph - N/A Rain Rain
11:20 AM 53.6 °F 53.6 °F 100% 29.74 in - NW 8.1 mph - N/A Rain Rain
11:50 AM 55.4 °F 53.6 °F 94% 29.74 in 5.0 mi NW 8.1 mph - N/A   Overcast
12:20 PM 55.4 °F 53.6 °F 94% 29.74 in 6.2 mi WNW 8.1 mph - N/A   Overcast
12:50 PM 55.4 °F 53.6 °F 94% 29.74 in 3.7 mi NW 8.1 mph - N/A Rain Light Rain
1:20 PM 55.4 °F 53.6 °F 94% 29.74 in 1.1 mi WNW 10.4 mph - N/A Rain Rain
1:50 PM 53.6 °F 53.6 °F 100% 29.74 in - NW 9.2 mph - N/A   Drizzle
2:20 PM 53.6 °F 53.6 °F 100% 29.74 in 3.7 mi NNW 6.9 mph - N/A   Light Drizzle
2:50 PM 55.4 °F 53.6 °F 94% 29.74 in 6.2 mi Variable 3.5 mph - N/A Rain Light Rain
3:20 PM 55.4 °F 53.6 °F 94% 29.74 in 6.2 mi NW 4.6 mph - N/A   Mostly Cloudy
3:50 PM 57.2 °F 53.6 °F 88% 29.74 in 6.2 mi West 6.9 mph - N/A   Mostly Cloudy
4:20 PM 57.2 °F 53.6 °F 88% 29.74 in 6.2 mi West 4.6 mph - N/A   Mostly Cloudy
4:50 PM 57.2 °F 51.8 °F 82% 29.74 in 6.2 mi WSW 4.6 mph - N/A   Mostly Cloudy
5:20 PM 57.2 °F 53.6 °F 88% 29.74 in 6.2 mi WSW 4.6 mph - N/A Rain Light Rain
5:50 PM 57.2 °F 53.6 °F 88% 29.74 in 6.2 mi SW 4.6 mph - N/A   Scattered Clouds
6:20 PM 59.0 °F 53.6 °F 82% 29.74 in 6.2 mi WSW 4.6 mph - N/A   Partly Cloudy
6:50 PM 57.2 °F 51.8 °F 82% 29.77 in 6.2 mi SW 5.8 mph - N/A   Partly Cloudy
7:20 PM 55.4 °F 51.8 °F 88% 29.77 in 6.2 mi South 4.6 mph - N/A   Partly Cloudy
7:50 PM 53.6 °F 51.8 °F 94% 29.77 in 6.2 mi South 4.6 mph - N/A Fog Shallow Fog
8:20 PM 53.6 °F 50.0 °F 88% 29.77 in 6.2 mi SW 3.5 mph - N/A Fog Shallow Fog
8:50 PM 53.6 °F 51.8 °F 94% 29.77 in 1.6 mi SW 4.6 mph - N/A   Haze
9:20 PM 53.6 °F 51.8 °F 94% 29.77 in 6.2 mi SW 4.6 mph - N/A   Partly Cloudy
9:50 PM 51.8 °F 50.0 °F 94% 29.77 in 6.2 mi South 4.6 mph - N/A   Partly Cloudy
10:20 PM 51.8 °F 50.0 °F 94% 29.77 in - South 4.6 mph - N/A   Clear
10:50 PM 48.2 °F 48.2 °F 100% 29.77 in - South 5.8 mph - N/A   Clear
11:20 PM 48.2 °F 46.4 °F 93% 29.80 in 5.0 mi Variable 3.5 mph - N/A   Partly Cloudy
11:50 PM 50.0 °F 48.2 °F 94% 29.80 in - Variable 3.5 mph - N/A   Clear